Location: Skalnate Pleso
(49.1889°N, 20.2450°E)
Time: 16:21:05
(UTC+02:00)

COSMOS 2428 - Pass Details

Date: 29 February 2020
Orbit: 846 x 856 km, 70.9° (Epoch: 07 April)

Event Time Altitude Azimuth Distance (km) Brightness Sun altitude
Exits shadow 01:22:28 14° 12° (NNE) 2,230 5.4 -44.5°
Drops below altitude 10° 01:23:18 10° 17° (NNE) 2,500 5.7 -44.4°
Sets 01:26:00 0° 26° (NNE) 3,439 6.6 -44.2°
